Overview Statistics Trail Chart Weather Telemetry Raw packets
 

This is the latest recevied weather packets stored in our database for station/object K2CAT. If no packets are shown the sender has not sent any weather packets the latest 10 day(s).

<< 79 80 81 82 83 84 85 >>
Time Temp. Humidity Pressure Rain* Wind** Luminosity Snow
1777129976 10° C 56% 1017.6 hPa 0 mm - 133 W/m² -
1777129675 10° C 56% 1017.6 hPa 0 mm - 116 W/m² -
1777129370 10.56° C 53% 1017.8 hPa 0 mm - 133 W/m² -
1777129065 10.56° C 53% 1017.7 hPa 0 mm - 150 W/m² -
1777128761 10.56° C 53% 1017.7 hPa 0 mm - 144 W/m² -
1777128459 10.56° C 51% 1017.8 hPa 0 mm - 154 W/m² -
1777128156 10.56° C 50% 1018 hPa 0 mm - 169 W/m² -
1777127854 10.56° C 52% 1017.7 hPa 0 mm - 183 W/m² -
1777127551 10.56° C 52% 1017.8 hPa 0 mm - 176 W/m² -
1777127246 10.56° C 52% 1017.6 hPa 0 mm - 174 W/m² -
1777126942 10.56° C 53% 1017.8 hPa 0 mm - 152 W/m² -
1777126639 11.11° C 53% 1017.5 hPa 0 mm - 172 W/m² -
1777126335 10.56° C 54% 1017.5 hPa 0 mm - 180 W/m² -
1777126031 10.56° C 54% 1017.3 hPa 0 mm - 173 W/m² -
1777125728 10.56° C 52% 1017.6 hPa 0 mm - 175 W/m² -
1777125423 10.56° C 51% 1017.5 hPa 0 mm - 161 W/m² -
1777125119 10.56° C 52% 1017.4 hPa 0 mm - 178 W/m² -
1777124814 10° C 53% 1017.4 hPa 0 mm - 232 W/m² -
1777124510 10° C 53% 1017.5 hPa 0 mm - 170 W/m² -
1777124207 10° C 54% 1017.4 hPa 0 mm - 172 W/m² -
1777123904 10.56° C 53% 1017.5 hPa 0 mm - 183 W/m² -
1777123600 10.56° C 56% 1017.4 hPa 0 mm - 168 W/m² -
1777123296 10° C 56% 1017.4 hPa 0 mm - 165 W/m² -
1777122992 9.44° C 57% 1017.3 hPa 0 mm - 154 W/m² -
1777122689 10° C 57% 1017.4 hPa 0 mm - 130 W/m² -

* Rain latest hour (hover to see other rain measurements)
** Current wind speed in m/s (hover to see current wind gust speed)